Regional Weather Roundup
Issued by NWS Bismarck, ND

Home | Current Version | Previous Version | Text Only | Print | Product List | Glossary On
Versions: 1 2 3 4 5 6 7 8 9 10 11 12 13 14 15 16 17 18 19 20 21 22 23 24 25 26 27 28 29 30 31 32 33 34 35 36 37 38 39 40 41 42 43 44 45 46 47 48 49 50
000
ASUS43 KBIS 100559
RWRBIS

NWR BROADCAST TEXT
NATIONAL WEATHER SERVICE BISMARCK ND
100 AM CDT THU JUL 10 2014

NOTE: "FAIR" INDICATES FEW OR NO CLOUDS BELOW 12,000 FEET WITH NO
SIGNIFICANT WEATHER AND/OR OBSTRUCTIONS TO VISIBILITY.


CITY           SKY/WX    TMP DP  RH WIND       PRES   REMARKS
WILLISTON      CLEAR     70  58  65 S6        29.83F
MINOT          CLEAR     63  58  83 SE7       29.89F
MINOT AFB      NOT AVBL
BISMARCK       CLEAR     65  59  81 S10       29.95S
DICKINSON      NOT AVBL
GARRISON         N/A     64  60  87 SE7       29.91F
HETTINGER ARPT CLEAR     61  53  75 SE6       29.96S
JAMESTOWN      CLEAR     62  55  77 S6        29.97S
CARRINGTON     FAIR      59  59 100 SE8       29.97F
HAZEN          FAIR      64  57  77 S13       29.91F
MANDAN         FAIR      64  59  82 S10       29.96S
$$

CITY           SKY/WX    TMP DP  RH WIND       PRES   REMARKS
GRAND FORKS    CLEAR     60  52  74 SE6       29.96F
GRAND FORKS AF CLEAR     57  54  88 S5        29.97F
DEVILS LAKE    CLEAR     64  52  63 SE10      29.94S
FARGO          CLEAR     61  51  70 SE6       29.98
GRAFTON        FAIR      57  52  82 SE3       29.96S
GWINNER        CLEAR     63  59  88 SE6       30.00S
$$

CITY           SKY/WX    TMP DP  RH WIND       PRES   REMARKS
ABERDEEN       CLEAR     58  54  86 SE5       29.98S
MOBRIDGE       CLEAR     64  57  78 SE8       29.95R
BUFFALO          N/A     62  55  77 SE14      29.89F
RAPID CITY     CLEAR     60  55  83 SE5       29.98S
GLASGOW        CLEAR     69  54  58 E13       29.73F
SIDNEY         CLEAR     68  55  64 S7        29.84F
WOLF POINT     CLEAR     71  54  54 SE3       29.76F
GLENDIVE       PTCLDY    72  54  53 S21       29.85S
MILES CITY     CLOUDY    75  54  47 SE12G21   29.82S
BAKER          PTCLDY    66  54  65 SE17      29.91S
$$

CITY           SKY/WX    TMP DP  RH WIND       PRES   REMARKS
BILLINGS       CLOUDY    79  49  34 NW8       29.87R
GREAT FALLS    MOCLDY    72  48  42 SW9       29.81F
$$



USA.gov is the U.S. government's official web portal to all federal, state and local government web resources and services.